EW3836 Weather Reports


Display with metric or nautical units.
time (UTC)temp
F
wind
direction
speed
MPH
gust
MPH
rain 1hr
in
rain 24hr
in
rain mn
in
humidity
%
barometer
mb
20260507101556 48 306 0.0 0.0 0.00 0.00 0.00 73 1012.7
20260507100053 49 236 0.0 0.0 0.00 0.00 0.00 73 1012.4
20260507094538 50 250 0.0 0.0 0.00 0.00 0.00 72 1012.4
20260507093036 51 291 0.0 0.0 0.00 0.00 0.00 69 1012.4
20260507091534 51 269 0.0 0.0 0.00 0.00 0.00 65 1012.4
20260507090033 51 265 0.0 0.0 0.00 0.00 0.00 65 1012.2
20260507084531 49 242 0.0 0.0 0.00 0.00 0.00 68 1012.2
20260507083030 50 238 0.0 0.0 0.00 0.00 0.00 67 1012.0
20260507081524 50 252 0.0 0.0 0.00 0.00 0.00 65 1012.1
20260507080020 52 232 0.0 0.0 0.00 0.00 0.00 63 1012.1
20260507074519 52 262 0.0 0.0 0.00 0.00 0.00 63 1012.0
20260507073017 52 228 0.0 0.0 0.00 0.00 0.00 63 1012.1
20260507071513 53 269 0.0 0.0 0.00 0.00 0.00 62 1012.0
20260507070013 53 265 0.0 0.0 0.00 0.00 0.00 61 1012.0
20260507064509 52 221 0.0 0.0 0.00 0.00 0.00 63 1012.1
20260507063005 54 236 0.0 0.0 0.00 0.00 0.00 59 1011.9
20260507061606 54 245 0.0 0.0 0.00 0.00 0.00 62 1011.9
20260507060012 54 252 0.0 0.0 0.00 0.00 0.00 60 1012.0
20260507054600 56 254 0.0 0.0 0.00 0.00 0.00 58 1012.1
20260507053100 57 276 0.0 0.0 0.00 0.00 0.00 56 1012.0
20260507051602 57 293 0.0 0.0 0.00 0.00 0.00 56 1012.2
20260507050059 57 233 0.0 0.0 0.00 0.00 0.00 56 1012.0
20260507044558 58 261 0.0 0.0 0.00 0.00 0.00 54 1012.0
20260507043101 58 265 0.0 0.0 0.00 0.00 0.00 53 1012.1
20260507041557 59 240 0.0 0.0 0.00 0.00 0.00 53 1011.9
20260507040056 60 242 0.0 0.0 0.00 0.00 0.00 51 1011.9
20260507034556 61 254 0.0 0.0 0.00 0.00 0.00 50 1011.9
20260507033055 61 266 0.0 0.0 0.00 0.00 0.00 49 1011.6
20260507031553 61 252 0.0 0.0 0.00 0.00 0.00 49 1011.3
20260507030053 61 255 0.0 0.0 0.00 0.00 0.00 50 1010.9
20260507024606 62 255 0.0 0.0 0.00 0.00 0.00 50 1010.8
20260507023052 63 269 0.0 0.0 0.00 0.00 0.00 49 1010.7
20260507021552 63 261 0.0 0.0 0.00 0.00 0.00 51 1010.7
20260507020106 63 286 0.0 0.0 0.00 0.00 0.00 53 1010.6
20260507014602 64 269 0.0 0.0 0.00 0.00 0.00 55 1010.5
20260507013052 65 288 0.0 0.0 0.00 0.00 0.00 53 1010.5
20260507011549 65 294 0.0 0.0 0.00 0.00 0.00 53 1010.5
20260507010048 66 281 0.0 0.0 0.00 0.00 0.00 55 1010.4
20260507004547 66 257 0.0 0.0 0.00 0.00 0.00 54 1010.4
20260507003047 66 285 0.0 0.0 0.00 0.00 0.00 52 1010.5
20260507001548 67 304 0.0 0.0 0.00 0.00 0.00 50 1010.5
20260507000042 68 304 0.0 0.0 0.00 0.00 0.00 47 1010.5
20260506234545 68 310 0.0 0.0 0.00 0.00 0.00 48 1010.5
20260506233039 69 306 0.0 0.0 0.00 0.00 0.00 49 1010.4
20260506231548 68 302 0.0 0.0 0.00 0.00 0.00 48 1010.3
20260506230050 69 271 0.0 0.0 0.00 0.00 0.00 51 1010.4
20260506224532 68 261 0.0 0.0 0.00 0.00 0.00 53 1010.4
20260506223045 69 251 0.0 0.0 0.00 0.00 0.00 53 1010.7
20260506221530 69 306 0.0 0.0 0.00 0.00 0.00 46 1010.9
20260506220030 70 325 0.0 0.0 0.00 0.00 0.00 47 1011.0
20260506214524 71 315 0.0 0.0 0.00 0.00 0.00 47 1011.0
20260506213026 71 302 0.0 0.0 0.00 0.00 0.00 44 1011.0
20260506211526 70 286 0.0 0.0 0.00 0.00 0.00 45 1011.0
20260506210019 71 244 0.0 0.0 0.00 0.00 0.00 48 1011.0
20260506204514 69 242 0.0 0.0 0.00 0.00 0.00 52 1011.1
20260506203020 68 242 0.0 0.0 0.00 0.00 0.00 54 1011.0
20260506201515 67 257 0.0 0.0 0.00 0.00 0.00 57 1011.0
20260506200006 67 249 0.0 0.0 0.00 0.00 0.00 54 1011.0
20260506194503 66 235 0.0 0.0 0.00 0.00 0.00 58 1011.1
20260506193001 66 252 0.0 0.0 0.00 0.00 0.00 58 1011.3
20260506191600 66 262 0.0 0.0 0.00 0.00 0.00 56 1011.4
20260506190056 65 263 0.0 0.0 0.00 0.00 0.00 55 1011.5
20260506184606 65 243 0.0 0.0 0.00 0.00 0.00 60 1011.7
20260506183101 64 244 0.0 0.0 0.00 0.00 0.00 61 1011.8
20260506181551 64 242 0.0 0.0 0.00 0.00 0.00 58 1012.0
20260506180052 65 252 0.0 0.0 0.00 0.00 0.00 59 1012.2
20260506174547 64 242 0.0 0.0 0.00 0.00 0.00 56 1012.1
20260506173050 64 273 0.0 0.0 0.00 0.00 0.00 57 1012.3
20260506171542 63 223 0.0 0.0 0.00 0.00 0.00 57 1012.2
20260506170059 63 248 0.0 0.0 0.00 0.00 0.00 58 1012.1
20260506164536 62 252 0.0 0.0 0.00 0.00 0.00 57 1012.1
20260506163035 62 217 0.0 0.0 0.00 0.00 0.00 58 1012.1
20260506161534 61 218 0.0 0.0 0.00 0.00 0.00 58 1012.2
20260506160035 61 237 0.0 0.0 0.00 0.00 0.00 58 1012.1
20260506154532 60 221 0.0 0.0 0.00 0.00 0.00 61 1012.1
20260506153027 60 254 0.0 0.0 0.00 0.00 0.00 59 1012.2
20260506151526 60 252 0.0 0.0 0.00 0.00 0.00 59 1012.1
20260506150023 60 252 0.0 0.0 0.00 0.00 0.00 60 1012.0
20260506144521 59 214 0.0 0.0 0.00 0.00 0.00 59 1012.0
20260506143028 58 239 0.0 0.0 0.00 0.00 0.00 60 1011.8
20260506141517 58 207 0.0 0.0 0.00 0.00 0.00 63 1011.8
20260506140015 56 177 0.0 0.0 0.00 0.00 0.00 64 1011.7
20260506134513 55 150 0.0 0.0 0.00 0.00 0.00 64 1011.5
20260506133011 55 199 0.0 0.0 0.00 0.00 0.00 63 1011.3
20260506131510 56 202 0.0 0.0 0.00 0.00 0.00 61 1011.1
20260506130011 56 182 0.0 0.0 0.00 0.00 0.00 60 1011.0
20260506124503 57 175 0.0 0.0 0.00 0.00 0.00 58 1010.8
20260506123001 58 187 0.0 0.0 0.00 0.00 0.00 58 1010.7
20260506121600 58 169 0.0 0.0 0.00 0.00 0.00 58 1010.6
20260506120059 59 194 0.0 0.0 0.00 0.00 0.00 58 1010.5
20260506114557 58 173 0.0 0.0 0.00 0.00 0.00 59 1010.4
20260506113056 57 173 0.0 0.0 0.00 0.00 0.00 60 1010.3
20260506111554 57 150 0.0 0.0 0.00 0.00 0.00 61 1010.3
20260506110054 56 174 0.0 0.0 0.00 0.00 0.00 63 1010.4
20260506104552 57 170 0.0 0.0 0.00 0.00 0.00 62 1010.4
20260506103054 57 166 0.0 0.0 0.00 0.00 0.00 61 1010.3